• Em Portugal
  • Lista de países
  • Para 7 dias
  • Temperatura da água
  • Mapas de satélite
  • Mapa do tempo
  • Widgets de tempo
  • user-avatar
    Iniciar Sessão

    Previsão horária em Sierpnica

    Hoje, 24 Setembro, Segunda-feira

    Tempo Temperatura Precipitação Vento Pressão Humidade
    00:00 +7°C° 0.5 mm 8 m/s 703 mmHg 88%
    01:00 +5°C° 0.5 mm 9 m/s 705 mmHg 86%
    02:00 +5°C° 0.1 mm 8 m/s 706 mmHg 86%
    03:00 +4°C° 0.1 mm 7 m/s 708 mmHg 86%
    04:00 +4°C° 0.1 mm 7 m/s 709 mmHg 85%
    05:00 +4°C° 0 mm 7 m/s 710 mmHg 83%
    06:00 +4°C° 0 mm 7 m/s 710 mmHg 82%
    07:00 +4°C° 0 mm 8 m/s 711 mmHg 80%
    08:00 +4°C° 0 mm 8 m/s 712 mmHg 76%
    09:00 +5°C° 0 mm 8 m/s 713 mmHg 72%
    10:00 +5°C° 0 mm 9 m/s 714 mmHg 69%
    11:00 +6°C° 0.1 mm 9 m/s 714 mmHg 64%
    12:00 +7°C° 0.1 mm 9 m/s 714 mmHg 60%
    13:00 +7°C° 0.1 mm 9 m/s 715 mmHg 55%
    14:00 +7°C° 0.1 mm 9 m/s 715 mmHg 55%
    15:00 +7°C° 0.1 mm 9 m/s 715 mmHg 55%
    16:00 +7°C° 0.1 mm 8 m/s 715 mmHg 55%
    17:00 +6°C° 0 mm 7 m/s 715 mmHg 59%
    18:00 +5°C° 0 mm 6 m/s 716 mmHg 63%
    19:00 +3°C° 0 mm 5 m/s 716 mmHg 67%
    20:00 +3°C° 0 mm 5 m/s 717 mmHg 68%
    21:00 +3°C° 0 mm 5 m/s 717 mmHg 70%
    22:00 +3°C° 0 mm 4 m/s 718 mmHg 72%
    23:00 +3°C° 0 mm 4 m/s 718 mmHg 74%

    Amanhã, 25 Setembro, Terça-feira

    Tempo Temperatura Precipitação Vento Pressão Humidade
    00:00 +3°C° 0 mm 4 m/s 718 mmHg 76%
    01:00 +1°C° 0 mm 4 m/s 719 mmHg 77%
    02:00 +1°C° 0 mm 4 m/s 719 mmHg 79%
    03:00 0°C° 0 mm 4 m/s 719 mmHg 81%
    04:00 0°C° 0 mm 4 m/s 719 mmHg 83%
    05:00 0°C° 0 mm 4 m/s 720 mmHg 82%
    06:00 +1°C° 0 mm 4 m/s 720 mmHg 81%
    07:00 +1°C° 0 mm 4 m/s 721 mmHg 80%
    08:00 +3°C° 0 mm 4 m/s 721 mmHg 73%
    09:00 +5°C° 0 mm 4 m/s 722 mmHg 65%
    10:00 +7°C° 0 mm 5 m/s 723 mmHg 58%
    11:00 +7°C° 0 mm 5 m/s 723 mmHg 55%
    12:00 +8°C° 0 mm 4 m/s 723 mmHg 51%
    13:00 +10°C° 0 mm 4 m/s 723 mmHg 48%
    14:00 +10°C° 0 mm 4 m/s 723 mmHg 49%
    15:00 +8°C° 0 mm 4 m/s 723 mmHg 49%
    16:00 +9°C° 0 mm 3 m/s 723 mmHg 49%
    17:00 +8°C° 0 mm 3 m/s 723 mmHg 55%
    18:00 +6°C° 0 mm 2 m/s 723 mmHg 61%
    19:00 +5°C° 0 mm 2 m/s 723 mmHg 67%
    20:00 +4°C° 0 mm 2 m/s 724 mmHg 68%
    21:00 +5°C° 0 mm 1 m/s 724 mmHg 70%
    22:00 +4°C° 0 mm 1 m/s 724 mmHg 72%
    23:00 +4°C° 0 mm 1 m/s 724 mmHg 72%

    Depois de amanhã, 26 Setembro, Quarta-feira

    Tempo Temperatura Precipitação Vento Pressão Humidade
    00:00 +4°C° 0 mm 1 m/s 724 mmHg 73%
    01:00 +4°C° 0 mm 1 m/s 724 mmHg 74%
    02:00 +3°C° 0 mm 1 m/s 724 mmHg 75%
    03:00 +3°C° 0 mm 1 m/s 724 mmHg 76%
    04:00 +3°C° 0 mm 1 m/s 723 mmHg 77%
    05:00 +3°C° 0 mm 1 m/s 723 mmHg 76%
    06:00 +4°C° 0 mm 1 m/s 724 mmHg 74%
    07:00 +3°C° 0 mm 2 m/s 724 mmHg 73%
    08:00 +6°C° 0 mm 2 m/s 724 mmHg 65%
    09:00 +8°C° 0 mm 3 m/s 724 mmHg 57%
    10:00 +10°C° 0 mm 3 m/s 724 mmHg 49%
    11:00 +11°C° 0 mm 4 m/s 723 mmHg 47%
    12:00 +12°C° 0 mm 4 m/s 723 mmHg 44%
    13:00 +12°C° 0 mm 4 m/s 723 mmHg 41%
    14:00 +12°C° 0 mm 4 m/s 722 mmHg 43%
    15:00 +12°C° 0 mm 4 m/s 721 mmHg 44%
    16:00 +12°C° 0 mm 3 m/s 721 mmHg 46%
    17:00 +11°C° 0 mm 3 m/s 721 mmHg 49%
    18:00 +10°C° 0 mm 3 m/s 720 mmHg 52%
    19:00 +8°C° 0 mm 3 m/s 720 mmHg 54%
    20:00 +8°C° 0 mm 3 m/s 720 mmHg 55%
    21:00 +8°C° 0 mm 3 m/s 720 mmHg 56%
    22:00 +7°C° 0 mm 3 m/s 720 mmHg 57%
    23:00 +7°C° 0 mm 3 m/s 720 mmHg 58%

    27 Setembro, Quinta-feira

    Tempo Temperatura Precipitação Vento Pressão Humidade
    00:00 +7°C° 0 mm 3 m/s 719 mmHg 59%
    01:00 +7°C° 0 mm 3 m/s 719 mmHg 60%
    02:00 +7°C° 0 mm 3 m/s 719 mmHg 59%
    03:00 +7°C° 0 mm 3 m/s 719 mmHg 59%
    04:00 +7°C° 0 mm 3 m/s 719 mmHg 59%
    05:00 +8°C° 0 mm 3 m/s 719 mmHg 59%
    06:00 +8°C° 0 mm 3 m/s 719 mmHg 58%
    07:00 +8°C° 0 mm 3 m/s 719 mmHg 58%
    08:00 +10°C° 0 mm 3 m/s 719 mmHg 56%
    09:00 +12°C° 0 mm 3 m/s 719 mmHg 53%
    10:00 +14°C° 0 mm 3 m/s 719 mmHg 51%
    11:00 +15°C° 0 mm 4 m/s 719 mmHg 50%
    12:00 +17°C° 0 mm 4 m/s 719 mmHg 50%
    13:00 +19°C° 0 mm 4 m/s 718 mmHg 50%
    14:00 +19°C° 0 mm 4 m/s 718 mmHg 52%
    15:00 +18°C° 0 mm 3 m/s 717 mmHg 53%
    16:00 +18°C° 0 mm 3 m/s 717 mmHg 54%
    17:00 +17°C° 0 mm 3 m/s 716 mmHg 59%
    18:00 +14°C° 0 mm 3 m/s 716 mmHg 63%
    19:00 +13°C° 0 mm 2 m/s 716 mmHg 67%
    20:00 +13°C° 0 mm 2 m/s 715 mmHg 67%
    21:00 +12°C° 0 mm 2 m/s 715 mmHg 67%
    22:00 +12°C° 0 mm 2 m/s 715 mmHg 67%
    23:00 +12°C° 0 mm 2 m/s 715 mmHg 67%

    28 Setembro, Sexta-feira

    Tempo Temperatura Precipitação Vento Pressão Humidade
    00:00 +12°C° 0 mm 2 m/s 714 mmHg 68%
    01:00 +10°C° 0 mm 2 m/s 714 mmHg 69%
    02:00 +10°C° 0 mm 2 m/s 714 mmHg 70%
    03:00 +9°C° 0 mm 2 m/s 713 mmHg 70%
    04:00 +9°C° 0 mm 2 m/s 713 mmHg 71%
    05:00 +9°C° 0 mm 2 m/s 713 mmHg 71%
    06:00 +9°C° 0 mm 2 m/s 713 mmHg 71%
    07:00 +9°C° 0 mm 2 m/s 714 mmHg 71%
    08:00 +12°C° 0 mm 2 m/s 714 mmHg 67%
    09:00 +14°C° 0 mm 2 m/s 714 mmHg 63%
    10:00 +16°C° 0 mm 2 m/s 715 mmHg 59%
    11:00 +16°C° 0 mm 2 m/s 715 mmHg 60%
    12:00 +16°C° 0 mm 2 m/s 714 mmHg 61%
    13:00 +16°C° 0 mm 3 m/s 714 mmHg 62%
    14:00 +16°C° 0 mm 3 m/s 714 mmHg 65%
    15:00 +14°C° 0 mm 3 m/s 714 mmHg 69%
    16:00 +13°C° 0 mm 3 m/s 713 mmHg 73%
    17:00 +12°C° 0 mm 3 m/s 714 mmHg 76%
    18:00 +12°C° 0 mm 2 m/s 714 mmHg 80%
    19:00 +10°C° 0 mm 2 m/s 714 mmHg 83%
    20:00 +10°C° 0.2 mm 2 m/s 714 mmHg 83%
    21:00 +9°C° 0.2 mm 2 m/s 715 mmHg 82%
    22:00 +9°C° 0.2 mm 2 m/s 715 mmHg 81%
    23:00 +8°C° 0.2 mm 2 m/s 715 mmHg 81%

    29 Setembro, Sábado

    Tempo Temperatura Precipitação Vento Pressão Humidade
    00:00 +8°C° 0.2 mm 2 m/s 715 mmHg 81%
    01:00 +7°C° 0.2 mm 2 m/s 715 mmHg 81%
    02:00 +6°C° 0 mm 2 m/s 715 mmHg 83%
    03:00 +5°C° 0 mm 2 m/s 715 mmHg 85%
    04:00 +5°C° 0 mm 2 m/s 715 mmHg 87%
    05:00 +5°C° 0 mm 2 m/s 716 mmHg 86%
    06:00 +5°C° 0 mm 2 m/s 716 mmHg 85%
    07:00 +5°C° 0 mm 2 m/s 717 mmHg 84%
    08:00 +6°C° 0 mm 2 m/s 717 mmHg 76%
    09:00 +8°C° 0 mm 3 m/s 718 mmHg 67%
    10:00 +9°C° 0 mm 3 m/s 718 mmHg 59%
    11:00 +10°C° 0 mm 3 m/s 718 mmHg 54%
    12:00 +11°C° 0 mm 3 m/s 718 mmHg 50%
    13:00 +11°C° 0 mm 3 m/s 718 mmHg 46%
    14:00 +11°C° 0 mm 3 m/s 718 mmHg 47%
    15:00 +11°C° 0 mm 3 m/s 717 mmHg 48%
    16:00 +11°C° 0 mm 3 m/s 717 mmHg 50%
    17:00 +9°C° 0 mm 3 m/s 717 mmHg 56%
    18:00 +8°C° 0 mm 2 m/s 717 mmHg 62%
    19:00 +6°C° 0 mm 2 m/s 717 mmHg 68%
    20:00 +5°C° 0 mm 2 m/s 717 mmHg 71%
    21:00 +5°C° 0 mm 2 m/s 717 mmHg 73%
    22:00 +5°C° 0 mm 2 m/s 717 mmHg 76%
    23:00 +4°C° 0 mm 2 m/s 717 mmHg 77%
    Mostrar mais

    3.3.7123123